Year,Month,Day,Hour,Minute,Value (Times are PST for temperature in C)
2006,06,12,00,00,13.40
2006,06,12,00,01,13.40
2006,06,12,00,02,13.40
2006,06,12,00,03,13.40
2006,06,12,00,04,13.40
2006,06,12,00,05,13.40
2006,06,12,00,06,13.40
2006,06,12,00,07,13.40
2006,06,12,00,08,13.40
2006,06,12,00,09,13.40
2006,06,12,00,10,13.40
2006,06,12,00,11,13.40
2006,06,12,00,12,13.50
2006,06,12,00,13,13.50
2006,06,12,00,14,13.50
2006,06,12,00,15,13.50
2006,06,12,00,16,13.50
2006,06,12,00,17,13.50
2006,06,12,00,18,13.50
2006,06,12,00,19,13.60
2006,06,12,00,20,13.60
2006,06,12,00,21,13.60
2006,06,12,00,22,13.70
2006,06,12,00,23,13.70
2006,06,12,00,24,13.70
2006,06,12,00,25,13.70
2006,06,12,00,26,13.70
2006,06,12,00,27,13.60
2006,06,12,00,28,13.60
2006,06,12,00,29,13.60
2006,06,12,00,30,13.50
2006,06,12,00,31,13.50
2006,06,12,00,32,13.40
2006,06,12,00,33,13.40
2006,06,12,00,34,13.40
2006,06,12,00,35,13.40
2006,06,12,00,36,13.30
2006,06,12,00,37,13.30
2006,06,12,00,38,13.40
2006,06,12,00,39,13.40
2006,06,12,00,40,13.40
2006,06,12,00,41,13.40
2006,06,12,00,42,13.40
2006,06,12,00,43,13.50
2006,06,12,00,44,13.50
2006,06,12,00,45,13.50
2006,06,12,00,46,13.60
2006,06,12,00,47,13.60
2006,06,12,00,48,13.60
2006,06,12,00,49,13.60
2006,06,12,00,50,13.60
2006,06,12,00,51,13.60
2006,06,12,00,52,13.60
2006,06,12,00,53,13.60
2006,06,12,00,54,13.60
2006,06,12,00,55,13.60
2006,06,12,00,56,13.60
2006,06,12,00,57,13.60
2006,06,12,00,58,13.60
2006,06,12,00,59,13.60
2006,06,12,01,00,13.60
2006,06,12,01,01,13.60
2006,06,12,01,02,13.60
2006,06,12,01,03,13.60
2006,06,12,01,04,13.60
2006,06,12,01,05,13.60
2006,06,12,01,06,13.60
2006,06,12,01,07,13.60
2006,06,12,01,08,13.60
2006,06,12,01,09,13.60
2006,06,12,01,10,13.60
2006,06,12,01,11,13.70
2006,06,12,01,12,13.70
2006,06,12,01,13,13.80
2006,06,12,01,14,13.80
2006,06,12,01,15,13.90
2006,06,12,01,16,13.90
2006,06,12,01,17,13.90
2006,06,12,01,18,13.90
2006,06,12,01,19,13.90
2006,06,12,01,20,14.00
2006,06,12,01,21,14.00
2006,06,12,01,22,14.00
2006,06,12,01,23,14.10
2006,06,12,01,24,14.10
2006,06,12,01,25,14.10
2006,06,12,01,26,14.10
2006,06,12,01,27,14.10
2006,06,12,01,28,14.10
2006,06,12,01,29,14.10
2006,06,12,01,30,14.10
2006,06,12,01,31,14.20
2006,06,12,01,32,14.20
2006,06,12,01,33,14.20
2006,06,12,01,34,14.20
2006,06,12,01,35,14.20
2006,06,12,01,36,14.20
2006,06,12,01,37,14.20
2006,06,12,01,38,14.20
2006,06,12,01,39,14.20
2006,06,12,01,40,14.20
2006,06,12,01,41,14.20
2006,06,12,01,42,14.20
2006,06,12,01,43,14.20
2006,06,12,01,44,14.20
2006,06,12,01,45,14.20
2006,06,12,01,46,14.20
2006,06,12,01,47,14.20
2006,06,12,01,48,14.20
2006,06,12,01,49,14.20
2006,06,12,01,50,14.20
2006,06,12,01,51,14.20
2006,06,12,01,52,14.20
2006,06,12,01,53,14.20
2006,06,12,01,54,14.20
2006,06,12,01,55,14.20
2006,06,12,01,56,14.20
2006,06,12,01,57,14.20
2006,06,12,01,58,14.20
2006,06,12,01,59,14.20
2006,06,12,02,00,14.20
2006,06,12,02,01,14.20
2006,06,12,02,02,14.20
2006,06,12,02,03,14.20
2006,06,12,02,04,14.20
2006,06,12,02,05,14.10
2006,06,12,02,06,14.10
2006,06,12,02,07,14.10
2006,06,12,02,08,14.10
2006,06,12,02,09,14.10
2006,06,12,02,10,14.20
2006,06,12,02,11,14.10
2006,06,12,02,12,14.10
2006,06,12,02,13,14.10
2006,06,12,02,14,14.20
2006,06,12,02,15,14.20
2006,06,12,02,16,14.20
2006,06,12,02,17,14.20
2006,06,12,02,18,14.20
2006,06,12,02,19,14.20
2006,06,12,02,20,14.20
2006,06,12,02,21,14.20
2006,06,12,02,22,14.20
2006,06,12,02,23,14.20
2006,06,12,02,24,14.20
2006,06,12,02,25,14.20
2006,06,12,02,26,14.20
2006,06,12,02,27,14.20
2006,06,12,02,28,14.20
2006,06,12,02,29,14.20
2006,06,12,02,30,14.20
2006,06,12,02,31,14.20
2006,06,12,02,32,14.20
2006,06,12,02,33,14.20
2006,06,12,02,34,14.20
2006,06,12,02,35,14.20
2006,06,12,02,36,14.10
2006,06,12,02,37,14.10
2006,06,12,02,38,14.10
2006,06,12,02,39,14.10
2006,06,12,02,40,14.10
2006,06,12,02,41,14.10
2006,06,12,02,42,14.10
2006,06,12,02,43,14.00
2006,06,12,02,44,14.00
2006,06,12,02,45,14.00
2006,06,12,02,46,14.00
2006,06,12,02,47,14.00
2006,06,12,02,48,14.00
2006,06,12,02,49,14.00
2006,06,12,02,50,14.00
2006,06,12,02,51,14.00
2006,06,12,02,52,14.00
2006,06,12,02,53,14.00
2006,06,12,02,54,14.00
2006,06,12,02,55,14.00
2006,06,12,02,56,14.00
2006,06,12,02,57,14.10
2006,06,12,02,58,14.10
2006,06,12,02,59,14.10
2006,06,12,03,00,14.10
2006,06,12,03,01,14.10
2006,06,12,03,02,14.10
2006,06,12,03,03,14.10
2006,06,12,03,04,14.10
2006,06,12,03,05,14.10
2006,06,12,03,06,14.10
2006,06,12,03,07,14.10
2006,06,12,03,08,14.10
2006,06,12,03,09,14.00
2006,06,12,03,10,14.00
2006,06,12,03,11,14.00
2006,06,12,03,12,14.00
2006,06,12,03,13,14.00
2006,06,12,03,14,14.00
2006,06,12,03,15,13.90
2006,06,12,03,16,13.90
2006,06,12,03,17,13.90
2006,06,12,03,18,13.90
2006,06,12,03,19,13.80
2006,06,12,03,20,13.80
2006,06,12,03,21,13.80
2006,06,12,03,22,13.70
2006,06,12,03,23,13.70
2006,06,12,03,24,13.70
2006,06,12,03,25,13.70
2006,06,12,03,26,13.70
2006,06,12,03,27,13.70
2006,06,12,03,28,13.70
2006,06,12,03,29,13.70
2006,06,12,03,30,13.70
2006,06,12,03,31,13.70
2006,06,12,03,32,13.70
2006,06,12,03,33,13.70
2006,06,12,03,34,13.70
2006,06,12,03,35,13.60
2006,06,12,03,36,13.60
2006,06,12,03,37,13.60
2006,06,12,03,38,13.60
2006,06,12,03,39,13.60
2006,06,12,03,40,13.60
2006,06,12,03,41,13.50
2006,06,12,03,42,13.50
2006,06,12,03,43,13.50
2006,06,12,03,44,13.50
2006,06,12,03,45,13.50
2006,06,12,03,46,13.40
2006,06,12,03,47,13.40
2006,06,12,03,48,13.30
2006,06,12,03,49,13.30
2006,06,12,03,50,13.30
2006,06,12,03,51,13.30
2006,06,12,03,52,13.20
2006,06,12,03,53,13.20
2006,06,12,03,54,13.20
2006,06,12,03,55,13.10
2006,06,12,03,56,13.10
2006,06,12,03,57,13.00
2006,06,12,03,58,13.00
2006,06,12,03,59,13.00
2006,06,12,04,00,13.00
2006,06,12,04,01,12.90
2006,06,12,04,02,12.90
2006,06,12,04,03,12.90
2006,06,12,04,04,12.80
2006,06,12,04,05,12.80
2006,06,12,04,06,12.80
2006,06,12,04,07,12.80
2006,06,12,04,08,12.80
2006,06,12,04,09,12.80
2006,06,12,04,10,12.80
2006,06,12,04,11,12.80
2006,06,12,04,12,12.80
2006,06,12,04,13,12.80
2006,06,12,04,14,12.70
2006,06,12,04,15,12.70
2006,06,12,04,16,12.60
2006,06,12,04,17,12.60
2006,06,12,04,18,12.60
2006,06,12,04,19,12.50
2006,06,12,04,20,12.50
2006,06,12,04,21,12.40
2006,06,12,04,22,12.40
2006,06,12,04,23,12.30
2006,06,12,04,24,12.30
2006,06,12,04,25,12.20
2006,06,12,04,26,12.20
2006,06,12,04,27,12.20
2006,06,12,04,28,12.10
2006,06,12,04,29,12.10
2006,06,12,04,30,12.10
2006,06,12,04,31,12.10
2006,06,12,04,32,12.10
2006,06,12,04,33,12.00
2006,06,12,04,34,12.00
2006,06,12,04,35,12.00
2006,06,12,04,36,12.00
2006,06,12,04,37,12.00
2006,06,12,04,38,11.90
2006,06,12,04,39,11.90
2006,06,12,04,40,11.90
2006,06,12,04,41,11.90
2006,06,12,04,42,11.90
2006,06,12,04,43,11.90
2006,06,12,04,44,11.80
2006,06,12,04,45,11.80
2006,06,12,04,46,11.80
2006,06,12,04,47,11.80
2006,06,12,04,48,11.70
2006,06,12,04,49,11.70
2006,06,12,04,50,11.60
2006,06,12,04,51,11.60
2006,06,12,04,52,11.60
2006,06,12,04,53,11.60
2006,06,12,04,54,11.60
2006,06,12,04,55,11.60
2006,06,12,04,56,11.60
2006,06,12,04,57,11.60
2006,06,12,04,58,11.50
2006,06,12,04,59,11.40
2006,06,12,05,00,11.40
2006,06,12,05,01,11.40
2006,06,12,05,02,11.40
2006,06,12,05,03,11.60
2006,06,12,05,04,11.60
2006,06,12,05,05,11.60
2006,06,12,05,06,11.60
2006,06,12,05,07,11.40
2006,06,12,05,08,11.40
2006,06,12,05,09,11.40
2006,06,12,05,10,11.40
2006,06,12,05,11,11.40
2006,06,12,05,12,11.40
2006,06,12,05,13,11.40
2006,06,12,05,14,11.40
2006,06,12,05,15,11.40
2006,06,12,05,16,11.40
2006,06,12,05,17,11.40
2006,06,12,05,18,11.40
2006,06,12,05,19,11.40
2006,06,12,05,20,11.40
2006,06,12,05,21,11.40
2006,06,12,05,22,11.40
2006,06,12,05,23,11.40
2006,06,12,05,24,11.40
2006,06,12,05,25,11.40
2006,06,12,05,26,11.40
2006,06,12,05,27,11.40
2006,06,12,05,28,11.60
2006,06,12,05,29,11.60
2006,06,12,05,30,11.60
2006,06,12,05,31,11.60
2006,06,12,05,32,11.60
2006,06,12,05,33,11.60
2006,06,12,05,34,11.60
2006,06,12,05,35,11.60
2006,06,12,05,36,11.60
2006,06,12,05,37,11.60
2006,06,12,05,38,11.60
2006,06,12,05,39,11.60
2006,06,12,05,40,11.60
2006,06,12,05,41,11.60
2006,06,12,05,42,11.60
2006,06,12,05,43,11.60
2006,06,12,05,44,11.60
2006,06,12,05,45,11.60
2006,06,12,05,46,11.60
2006,06,12,05,47,11.60
2006,06,12,05,48,11.60
2006,06,12,05,49,11.60
2006,06,12,05,50,11.60
2006,06,12,05,51,11.60
2006,06,12,05,52,11.60
2006,06,12,05,53,11.60
2006,06,12,05,54,11.60
2006,06,12,05,55,11.60
2006,06,12,05,56,11.60
2006,06,12,05,57,11.60
2006,06,12,05,58,11.70
2006,06,12,05,59,11.70
2006,06,12,06,00,11.80
2006,06,12,06,01,11.80
2006,06,12,06,02,11.80
2006,06,12,06,03,11.80
2006,06,12,06,04,11.80
2006,06,12,06,05,11.80
2006,06,12,06,06,11.80
2006,06,12,06,07,11.80
2006,06,12,06,08,11.80
2006,06,12,06,09,11.80
2006,06,12,06,10,11.80
2006,06,12,06,11,11.80
2006,06,12,06,12,11.80
2006,06,12,06,13,11.90
2006,06,12,06,14,11.90
2006,06,12,06,15,12.00
2006,06,12,06,16,12.00
2006,06,12,06,17,12.00
2006,06,12,06,18,12.00
2006,06,12,06,19,12.00
2006,06,12,06,20,12.10
2006,06,12,06,21,12.10
2006,06,12,06,22,12.10
2006,06,12,06,23,12.20
2006,06,12,06,24,12.20
2006,06,12,06,25,12.30
2006,06,12,06,26,12.30
2006,06,12,06,27,12.30
2006,06,12,06,28,12.40
2006,06,12,06,29,12.40
2006,06,12,06,30,12.50
2006,06,12,06,31,12.50
2006,06,12,06,32,12.60
2006,06,12,06,33,12.70
2006,06,12,06,34,12.70
2006,06,12,06,35,12.80
2006,06,12,06,36,12.80
2006,06,12,06,37,12.80
2006,06,12,06,38,12.80
2006,06,12,06,39,12.80
2006,06,12,06,40,12.80
2006,06,12,06,41,12.80
2006,06,12,06,42,12.90
2006,06,12,06,43,12.90
2006,06,12,06,44,12.90
2006,06,12,06,45,12.90
2006,06,12,06,46,13.00
2006,06,12,06,47,13.00
2006,06,12,06,48,13.10
2006,06,12,06,49,13.10
2006,06,12,06,50,13.10
2006,06,12,06,51,13.20
2006,06,12,06,52,13.20
2006,06,12,06,53,13.30
2006,06,12,06,54,13.30
2006,06,12,06,55,13.30
2006,06,12,06,56,13.40
2006,06,12,06,57,13.40
2006,06,12,06,58,13.50
2006,06,12,06,59,13.60
2006,06,12,07,00,13.70
2006,06,12,07,01,13.80
2006,06,12,07,02,13.90
2006,06,12,07,03,14.00
2006,06,12,07,04,14.10
2006,06,12,07,05,14.20
2006,06,12,07,06,14.40
2006,06,12,07,07,14.50
2006,06,12,07,08,14.60
2006,06,12,07,09,14.70
2006,06,12,07,10,14.80
2006,06,12,07,11,14.80
2006,06,12,07,12,14.90
2006,06,12,07,13,15.00
2006,06,12,07,14,15.10
2006,06,12,07,15,15.10
2006,06,12,07,16,15.20
2006,06,12,07,17,15.30
2006,06,12,07,18,15.30
2006,06,12,07,19,15.30
2006,06,12,07,20,15.40
2006,06,12,07,21,15.40
2006,06,12,07,22,15.50
2006,06,12,07,23,15.60
2006,06,12,07,24,15.60
2006,06,12,07,25,15.70
2006,06,12,07,26,15.80
2006,06,12,07,27,15.80
2006,06,12,07,28,15.80
2006,06,12,07,29,15.90
2006,06,12,07,30,16.00
2006,06,12,07,31,16.10
2006,06,12,07,32,16.10
2006,06,12,07,33,16.10
2006,06,12,07,34,16.10
2006,06,12,07,35,16.10
2006,06,12,07,36,16.20
2006,06,12,07,37,16.20
2006,06,12,07,38,16.30
2006,06,12,07,39,16.30
2006,06,12,07,40,16.40
2006,06,12,07,41,16.30
2006,06,12,07,42,16.30
2006,06,12,07,43,16.30
2006,06,12,07,44,16.30
2006,06,12,07,45,16.30
2006,06,12,07,46,16.30
2006,06,12,07,47,16.30
2006,06,12,07,48,16.30
2006,06,12,07,49,16.30
2006,06,12,07,50,16.30
2006,06,12,07,51,16.40
2006,06,12,07,52,16.40
2006,06,12,07,53,16.40
2006,06,12,07,54,16.50
2006,06,12,07,55,16.60
2006,06,12,07,56,16.60
2006,06,12,07,57,16.60
2006,06,12,07,58,16.70
2006,06,12,07,59,16.70
2006,06,12,08,00,16.70
2006,06,12,08,01,16.70
2006,06,12,08,02,16.80
2006,06,12,08,03,16.80
2006,06,12,08,04,16.80
2006,06,12,08,05,16.90
2006,06,12,08,06,16.90
2006,06,12,08,07,17.00
2006,06,12,08,08,17.00
2006,06,12,08,09,17.10
2006,06,12,08,10,17.20
2006,06,12,08,11,17.20
2006,06,12,08,12,17.30
2006,06,12,08,13,17.30
2006,06,12,08,14,17.30
2006,06,12,08,15,17.30
2006,06,12,08,16,17.30
2006,06,12,08,17,17.30
2006,06,12,08,18,17.30
2006,06,12,08,19,17.30
2006,06,12,08,20,17.30
2006,06,12,08,21,17.30
2006,06,12,08,22,17.50
2006,06,12,08,23,17.50
2006,06,12,08,24,17.50
2006,06,12,08,25,17.50
2006,06,12,08,26,17.60
2006,06,12,08,27,17.60
2006,06,12,08,28,17.70
2006,06,12,08,29,17.70
2006,06,12,08,30,17.70
2006,06,12,08,31,17.70
2006,06,12,08,32,17.60
2006,06,12,08,33,17.60
2006,06,12,08,34,17.50
2006,06,12,08,35,17.60
2006,06,12,08,36,17.60
2006,06,12,08,37,17.70
2006,06,12,08,38,17.70
2006,06,12,08,39,17.70
2006,06,12,08,40,17.70
2006,06,12,08,41,17.70
2006,06,12,08,42,17.70
2006,06,12,08,43,17.70
2006,06,12,08,44,17.70
2006,06,12,08,45,17.70
2006,06,12,08,46,17.70
2006,06,12,08,47,17.70
2006,06,12,08,48,17.80
2006,06,12,08,49,17.90
2006,06,12,08,50,17.90
2006,06,12,08,51,17.90
2006,06,12,08,52,17.90
2006,06,12,08,53,17.80
2006,06,12,08,54,17.80
2006,06,12,08,55,17.80
2006,06,12,08,56,17.70
2006,06,12,08,57,17.60
2006,06,12,08,58,17.60
2006,06,12,08,59,17.60
2006,06,12,09,00,17.70
2006,06,12,09,01,17.80
2006,06,12,09,02,17.80
2006,06,12,09,03,17.90
2006,06,12,09,04,17.90
2006,06,12,09,05,17.90
2006,06,12,09,06,17.90
2006,06,12,09,07,18.00
2006,06,12,09,08,18.10
2006,06,12,09,09,18.20
2006,06,12,09,10,18.20
2006,06,12,09,11,18.20
2006,06,12,09,12,18.30
2006,06,12,09,13,18.30
2006,06,12,09,14,18.40
2006,06,12,09,15,18.40
2006,06,12,09,16,18.40
2006,06,12,09,17,18.40
2006,06,12,09,18,18.40
2006,06,12,09,19,18.40
2006,06,12,09,20,18.40
2006,06,12,09,21,18.40
2006,06,12,09,22,18.40
2006,06,12,09,23,18.40
2006,06,12,09,24,18.40
2006,06,12,09,25,18.40
2006,06,12,09,26,18.40
2006,06,12,09,27,18.40
2006,06,12,09,28,18.40
2006,06,12,09,29,18.40
2006,06,12,09,30,18.60
2006,06,12,09,31,18.70
2006,06,12,09,32,18.80
2006,06,12,09,33,18.90
2006,06,12,09,34,18.90
2006,06,12,09,35,18.90
2006,06,12,09,36,19.10
2006,06,12,09,37,19.10
2006,06,12,09,38,19.20
2006,06,12,09,39,19.20
2006,06,12,09,40,19.20
2006,06,12,09,41,19.30
2006,06,12,09,42,19.30
2006,06,12,09,43,19.30
2006,06,12,09,44,19.30
2006,06,12,09,45,19.30
2006,06,12,09,46,19.30
2006,06,12,09,47,19.20
2006,06,12,09,48,19.30
2006,06,12,09,49,19.40
2006,06,12,09,50,19.40
2006,06,12,09,51,19.60
2006,06,12,09,52,19.60
2006,06,12,09,53,19.70
2006,06,12,09,54,19.80
2006,06,12,09,55,19.90
2006,06,12,09,56,20.10
2006,06,12,09,57,20.20
2006,06,12,09,58,20.20
2006,06,12,09,59,20.10
2006,06,12,10,00,20.10
2006,06,12,10,01,20.10
2006,06,12,10,02,20.10
2006,06,12,10,03,19.90
2006,06,12,10,04,19.90
2006,06,12,10,05,19.90
2006,06,12,10,06,20.00
2006,06,12,10,07,20.10
2006,06,12,10,08,20.20
2006,06,12,10,09,20.20
2006,06,12,10,10,20.30
2006,06,12,10,11,20.20
2006,06,12,10,12,20.20
2006,06,12,10,13,20.20
2006,06,12,10,14,20.20
2006,06,12,10,15,20.20
2006,06,12,10,16,20.30
2006,06,12,10,17,20.30
2006,06,12,10,18,20.30
2006,06,12,10,19,20.30
2006,06,12,10,20,20.20
2006,06,12,10,21,20.20
2006,06,12,10,22,20.20
2006,06,12,10,23,20.30
2006,06,12,10,24,20.30
2006,06,12,10,25,20.40
2006,06,12,10,26,20.40
2006,06,12,10,27,20.50
2006,06,12,10,28,20.50
2006,06,12,10,29,20.60
2006,06,12,10,30,20.60
2006,06,12,10,31,20.60
2006,06,12,10,32,20.60
2006,06,12,10,33,20.60
2006,06,12,10,34,20.60
2006,06,12,10,35,20.50
2006,06,12,10,36,20.40
2006,06,12,10,37,20.40
2006,06,12,10,38,20.50
2006,06,12,10,39,20.50
2006,06,12,10,40,20.60
2006,06,12,10,41,20.60
2006,06,12,10,42,20.50
2006,06,12,10,43,20.50
2006,06,12,10,44,20.50
2006,06,12,10,45,20.50
2006,06,12,10,46,20.60
2006,06,12,10,47,20.60
2006,06,12,10,48,20.50
2006,06,12,10,49,20.50
2006,06,12,10,50,20.40
2006,06,12,10,51,20.40
2006,06,12,10,52,20.40
2006,06,12,10,53,20.40
2006,06,12,10,54,20.40
2006,06,12,10,55,20.50
2006,06,12,10,56,20.50
2006,06,12,10,57,20.50
2006,06,12,10,58,20.50
2006,06,12,10,59,20.50
2006,06,12,11,00,20.50
2006,06,12,11,01,20.40
2006,06,12,11,02,20.40
2006,06,12,11,03,20.40
2006,06,12,11,04,20.40
2006,06,12,11,05,20.50
2006,06,12,11,06,20.50
2006,06,12,11,07,20.50
2006,06,12,11,08,20.50
2006,06,12,11,09,20.50
2006,06,12,11,10,20.50
2006,06,12,11,11,20.50
2006,06,12,11,12,20.30
2006,06,12,11,13,20.20
2006,06,12,11,14,20.30
2006,06,12,11,15,20.30
2006,06,12,11,16,20.30
2006,06,12,11,17,20.30
2006,06,12,11,18,20.30
2006,06,12,11,19,20.30
2006,06,12,11,20,20.30
2006,06,12,11,21,20.30
2006,06,12,11,22,20.20
2006,06,12,11,23,20.20
2006,06,12,11,24,20.20
2006,06,12,11,25,20.40
2006,06,12,11,26,20.60
2006,06,12,11,27,20.60
2006,06,12,11,28,20.60
2006,06,12,11,29,20.60
2006,06,12,11,30,20.50
2006,06,12,11,31,20.60
2006,06,12,11,32,20.60
2006,06,12,11,33,20.60
2006,06,12,11,34,20.60
2006,06,12,11,35,20.60
2006,06,12,11,36,20.50
2006,06,12,11,37,20.50
2006,06,12,11,38,20.40
2006,06,12,11,39,20.30
2006,06,12,11,40,20.20
2006,06,12,11,41,20.20
2006,06,12,11,42,20.20
2006,06,12,11,43,20.30
2006,06,12,11,44,20.30
2006,06,12,11,45,20.30
2006,06,12,11,46,20.30
2006,06,12,11,47,20.30
2006,06,12,11,48,20.30
2006,06,12,11,49,20.30
2006,06,12,11,50,20.40
2006,06,12,11,51,20.50
2006,06,12,11,52,20.50
2006,06,12,11,53,20.60
2006,06,12,11,54,20.60
2006,06,12,11,55,20.70
2006,06,12,11,56,20.80
2006,06,12,11,57,20.70
2006,06,12,11,58,20.40
2006,06,12,11,59,20.20
2006,06,12,12,00,20.20
2006,06,12,12,01,20.20
2006,06,12,12,02,20.20
2006,06,12,12,03,20.20
2006,06,12,12,04,20.30
2006,06,12,12,05,20.40
2006,06,12,12,06,20.60
2006,06,12,12,07,20.60
2006,06,12,12,08,20.50
2006,06,12,12,09,20.50
2006,06,12,12,10,20.50
2006,06,12,12,11,20.60
2006,06,12,12,12,20.60
2006,06,12,12,13,20.50
2006,06,12,12,14,20.40
2006,06,12,12,15,20.40
2006,06,12,12,16,20.30
2006,06,12,12,17,20.40
2006,06,12,12,18,20.50
2006,06,12,12,19,20.50
2006,06,12,12,20,20.50
2006,06,12,12,21,20.60
2006,06,12,12,22,20.60
2006,06,12,12,23,20.70
2006,06,12,12,24,20.70
2006,06,12,12,25,20.70
2006,06,12,12,26,20.70
2006,06,12,12,27,20.80
2006,06,12,12,28,20.80
2006,06,12,12,29,20.80
2006,06,12,12,30,20.70
2006,06,12,12,31,20.80
2006,06,12,12,32,20.90
2006,06,12,12,33,21.00
2006,06,12,12,34,21.10
2006,06,12,12,35,21.10
2006,06,12,12,36,21.00
2006,06,12,12,37,20.90
2006,06,12,12,38,20.70
2006,06,12,12,39,20.60
2006,06,12,12,40,20.50
2006,06,12,12,41,20.50
2006,06,12,12,42,20.50
2006,06,12,12,43,20.50
2006,06,12,12,44,20.50
2006,06,12,12,45,20.50
2006,06,12,12,46,20.60
2006,06,12,12,47,20.50
2006,06,12,12,48,20.40
2006,06,12,12,49,20.40
2006,06,12,12,50,20.30
2006,06,12,12,51,20.30
2006,06,12,12,52,20.30
2006,06,12,12,53,20.40
2006,06,12,12,54,20.40
2006,06,12,12,55,20.40
2006,06,12,12,56,20.50
2006,06,12,12,57,20.50
2006,06,12,12,58,20.60
2006,06,12,12,59,20.60
2006,06,12,13,00,20.70
2006,06,12,13,01,20.70
2006,06,12,13,02,20.70
2006,06,12,13,03,20.70
2006,06,12,13,04,20.70
2006,06,12,13,05,20.90
2006,06,12,13,06,21.00
2006,06,12,13,07,21.10
2006,06,12,13,08,21.10
2006,06,12,13,09,21.20
2006,06,12,13,10,21.30
2006,06,12,13,11,21.50
2006,06,12,13,12,21.60
2006,06,12,13,13,21.70
2006,06,12,13,14,21.70
2006,06,12,13,15,21.70
2006,06,12,13,16,21.70
2006,06,12,13,17,21.70
2006,06,12,13,18,21.70
2006,06,12,13,19,21.70
2006,06,12,13,20,21.70
2006,06,12,13,21,21.70
2006,06,12,13,22,21.70
2006,06,12,13,23,21.70
2006,06,12,13,24,21.70
2006,06,12,13,25,21.80
2006,06,12,13,26,22.00
2006,06,12,13,27,22.00
2006,06,12,13,28,22.10
2006,06,12,13,29,22.10
2006,06,12,13,30,22.20
2006,06,12,13,31,22.10
2006,06,12,13,32,22.00
2006,06,12,13,33,22.00
2006,06,12,13,34,21.90
2006,06,12,13,35,21.90
2006,06,12,13,36,21.80
2006,06,12,13,37,21.80
2006,06,12,13,38,21.70
2006,06,12,13,39,21.80
2006,06,12,13,40,21.80
2006,06,12,13,41,21.80
2006,06,12,13,42,21.90
2006,06,12,13,43,21.90
2006,06,12,13,44,21.90
2006,06,12,13,45,22.00
2006,06,12,13,46,22.20
2006,06,12,13,47,22.20
2006,06,12,13,48,22.10
2006,06,12,13,49,22.10
2006,06,12,13,50,22.10
2006,06,12,13,51,22.20
2006,06,12,13,52,22.20
2006,06,12,13,53,22.10
2006,06,12,13,54,22.00
2006,06,12,13,55,22.00
2006,06,12,13,56,22.00
2006,06,12,13,57,22.10
2006,06,12,13,58,22.20
2006,06,12,13,59,22.20
2006,06,12,14,00,22.20
2006,06,12,14,01,22.20
2006,06,12,14,02,22.20
2006,06,12,14,03,22.20
2006,06,12,14,04,22.20
2006,06,12,14,05,22.30
2006,06,12,14,06,22.30
2006,06,12,14,07,22.30
2006,06,12,14,08,22.30
2006,06,12,14,09,22.20
2006,06,12,14,10,22.20
2006,06,12,14,11,22.20
2006,06,12,14,12,22.20
2006,06,12,14,13,22.30
2006,06,12,14,14,22.40
2006,06,12,14,15,22.40
2006,06,12,14,16,22.40
2006,06,12,14,17,22.30
2006,06,12,14,18,22.40
2006,06,12,14,19,22.40
2006,06,12,14,20,22.40
2006,06,12,14,21,22.40
2006,06,12,14,22,22.50
2006,06,12,14,23,22.50
2006,06,12,14,24,22.60
2006,06,12,14,25,22.60
2006,06,12,14,26,22.70
2006,06,12,14,27,22.60
2006,06,12,14,28,22.50
2006,06,12,14,29,22.30
2006,06,12,14,30,22.30
2006,06,12,14,31,22.30
2006,06,12,14,32,22.30
2006,06,12,14,33,22.30
2006,06,12,14,34,22.30
2006,06,12,14,35,22.20
2006,06,12,14,36,22.20
2006,06,12,14,37,22.30
2006,06,12,14,38,22.30
2006,06,12,14,39,22.20
2006,06,12,14,40,22.20
2006,06,12,14,41,22.30
2006,06,12,14,42,22.20
2006,06,12,14,43,22.20
2006,06,12,14,44,22.20
2006,06,12,14,45,22.30
2006,06,12,14,46,22.00
2006,06,12,14,47,21.90
2006,06,12,14,48,21.90
2006,06,12,14,49,21.90
2006,06,12,14,50,21.90
2006,06,12,14,51,21.80
2006,06,12,14,52,21.60
2006,06,12,14,53,21.40
2006,06,12,14,54,21.20
2006,06,12,14,55,21.10
2006,06,12,14,56,21.00
2006,06,12,14,57,20.80
2006,06,12,14,58,20.40
2006,06,12,14,59,20.10
2006,06,12,15,00,19.90
2006,06,12,15,01,19.60
2006,06,12,15,02,19.40
2006,06,12,15,03,19.30
2006,06,12,15,04,19.20
2006,06,12,15,05,19.10
2006,06,12,15,06,18.90
2006,06,12,15,07,18.70
2006,06,12,15,08,18.60
2006,06,12,15,09,18.60
2006,06,12,15,10,18.50
2006,06,12,15,11,18.50
2006,06,12,15,12,18.50
2006,06,12,15,13,18.50
2006,06,12,15,14,18.60
2006,06,12,15,15,18.70
2006,06,12,15,16,18.60
2006,06,12,15,17,18.50
2006,06,12,15,18,18.40
2006,06,12,15,19,18.40
2006,06,12,15,20,18.30
2006,06,12,15,21,18.20
2006,06,12,15,22,18.20
2006,06,12,15,23,18.10
2006,06,12,15,24,18.00
2006,06,12,15,25,17.90
2006,06,12,15,26,17.90
2006,06,12,15,27,17.90
2006,06,12,15,28,17.90
2006,06,12,15,29,17.90
2006,06,12,15,30,18.00
2006,06,12,15,31,18.10
2006,06,12,15,32,18.20
2006,06,12,15,33,18.30
2006,06,12,15,34,18.40
2006,06,12,15,35,18.60
2006,06,12,15,36,18.70
2006,06,12,15,37,18.70
2006,06,12,15,38,18.80
2006,06,12,15,39,18.90
2006,06,12,15,40,18.70
2006,06,12,15,41,18.70
2006,06,12,15,42,18.70
2006,06,12,15,43,18.60
2006,06,12,15,44,18.60
2006,06,12,15,45,18.70
2006,06,12,15,46,18.70
2006,06,12,15,47,18.70
2006,06,12,15,48,18.70
2006,06,12,15,49,18.70
2006,06,12,15,50,18.70
2006,06,12,15,51,18.80
2006,06,12,15,52,18.90
2006,06,12,15,53,18.90
2006,06,12,15,54,18.90
2006,06,12,15,55,18.90
2006,06,12,15,56,19.10
2006,06,12,15,57,19.10
2006,06,12,15,58,19.10
2006,06,12,15,59,19.10
2006,06,12,16,00,19.20
2006,06,12,16,01,19.30
2006,06,12,16,02,19.30
2006,06,12,16,03,19.40
2006,06,12,16,04,19.50
2006,06,12,16,05,19.60
2006,06,12,16,06,19.60
2006,06,12,16,07,19.70
2006,06,12,16,08,19.90
2006,06,12,16,09,19.90
2006,06,12,16,10,19.90
2006,06,12,16,11,19.90
2006,06,12,16,12,19.90
2006,06,12,16,13,19.90
2006,06,12,16,14,19.90
2006,06,12,16,15,19.90
2006,06,12,16,16,19.90
2006,06,12,16,17,19.90
2006,06,12,16,18,19.90
2006,06,12,16,19,19.90
2006,06,12,16,20,19.90
2006,06,12,16,21,19.90
2006,06,12,16,22,19.90
2006,06,12,16,23,19.70
2006,06,12,16,24,19.50
2006,06,12,16,25,19.30
2006,06,12,16,26,19.20
2006,06,12,16,27,19.00
2006,06,12,16,28,18.90
2006,06,12,16,29,18.80
2006,06,12,16,30,18.80
2006,06,12,16,31,18.80
2006,06,12,16,32,18.70
2006,06,12,16,33,18.60
2006,06,12,16,34,18.50
2006,06,12,16,35,18.50
2006,06,12,16,36,18.50
2006,06,12,16,37,18.40
2006,06,12,16,38,18.40
2006,06,12,16,39,18.30
2006,06,12,16,40,18.40
2006,06,12,16,41,18.40
2006,06,12,16,42,18.40
2006,06,12,16,43,18.30
2006,06,12,16,44,18.30
2006,06,12,16,45,18.30
2006,06,12,16,46,18.30
2006,06,12,16,47,18.40
2006,06,12,16,48,18.40
2006,06,12,16,49,18.40
2006,06,12,16,50,18.30
2006,06,12,16,51,18.30
2006,06,12,16,52,18.30
2006,06,12,16,53,18.30
2006,06,12,16,54,18.20
2006,06,12,16,55,18.20
2006,06,12,16,56,18.00
2006,06,12,16,57,17.90
2006,06,12,16,58,17.90
2006,06,12,16,59,17.90
2006,06,12,17,00,17.80
2006,06,12,17,01,17.80
2006,06,12,17,02,17.70
2006,06,12,17,03,17.70
2006,06,12,17,04,17.70
2006,06,12,17,05,17.70
2006,06,12,17,06,17.70
2006,06,12,17,07,17.70
2006,06,12,17,08,17.60
2006,06,12,17,09,17.60
2006,06,12,17,10,17.60
2006,06,12,17,11,17.60
2006,06,12,17,12,17.70
2006,06,12,17,13,17.70
2006,06,12,17,14,17.70
2006,06,12,17,15,17.70
2006,06,12,17,16,17.70
2006,06,12,17,17,17.70
2006,06,12,17,18,17.60
2006,06,12,17,19,17.60